Find O3b FM18

NORAD ID: 44115 Int'l Des: 2019-020 Owner: O3BS Country: UK operational
MEOCIRCULAR

Live-Position

3D-Globus wird geladen...

Über O3b FM18

Beschreibung wird geladen...

Nächste Überflüge

Passes for default location (London). Set your location on the main map for personalized predictions.

Höhenverlauf

Loading altitude history...

Zweizeiliger Elementsatz

1 44115U 19020D 26106.69918612 -.00000013 00000-0 00000+0 0 9998
2 44115 0.0535 1.4236 0002740 24.6550 333.9370 5.00115270128573
Epoch: 16. Apr. 2026 • Age: 23 hours

Aktueller Status

Höhe 8066.1 km
Geschwindigkeit 5.25 km/s
Subsatellitenpunkt -0.05°S, 168.18°W
Startdatum 4. Apr. 2019
Alter 7 years
Typ other

Technische Details

Klassifizierung Payload
Masse 700.00 kg
Trockenmasse 500.00 kg
Gesamtmasse 700.00 kg
Länge 4.00 m
Durchmesser 2.00 m
Spannweite 12.00 m
Form Box trap+2 pan
Hersteller THALR
Bus-Typ Prisma
Phasenstatus Renamed
Besitzer/Staat O3BS/UK

Most Searched